Погода в Карлетонвилле

ЮАР     26°21′24″S   27°23′59″E
темп.,
°C
ветер,
м/с
пор.,
м/с
влажн.,
%
обл.,
%
осадки,
мм/ч
давл.,
гПа
погр.,
м
20 мая, пт
пт2023:00+11с34625 0.0 101854
02:00+10с45645 0.0 101771
05:00+9ссв45680 0.0 101663
08:00+11ссв410635 0.0 1016303
11:00+17с89420 0.0 10141361
14:00+19с883919 0.0 10112044
17:00+16св484984 0.3 1010345
20:00+11ссв4988100 5.4 1015348
21 мая, сб
сб2123:00+10св41086100 6.3 1014476
02:00+10ссв51191100 7.2 1014519
05:00+11ссв51095100 1.8 1013598
08:00+10св6139596 2.3 1014660
11:00+8ссз5888100 0.5 1016434
14:00+8св358198 1.0 1016244
17:00+10ссв35720 0.1 1016320
20:00+7в337937 0.1 101941
22 мая, вс
вс2223:00+8в2266100 0.0 102025
02:00+8в4991100 0.0 1019181
05:00+8в479353 0.0 1019137
08:00+10св5118799 0.0 1020424
11:00+14всв4663100 0.1 10201112
14:00+13юв2363100 1.6 1018496
17:00+11ссв3478100 1.3 1019162
20:00+11ю3578100 1.9 1021170
23 мая, пн
пн2323:00+9ю338536 1.4 102153
02:00+9ю479159 1.4 1020149
05:00+8ю37964 0.0 1020160
08:00+10вюв36910 0.0 1021200
11:00+15ю44610 0.0 1020974
14:00+17ю454912 0.0 10161566
17:00+15ю355611 0.0 1016148
20:00+12ююв226913 0.0 101917
24 мая, вт
вт2423:00+13юз356757 0.0 1019140
02:00+10ююз33680 0.0 101941
05:00+9ююз227151 0.0 101923
08:00+10ююз26670 0.0 1021187
11:00+16ююз57444 0.0 1020754
14:00+19ююз56345 0.0 10171159
17:00+16ююз35440 0.0 1018103
20:00+13ю33550 0.0 102126